Regional Weather Roundup
Issued by NWS

Home | Current Version | Previous Version | Text Only | Print | Product List | Glossary Off
Versions: 1 2 3 4 5 6 7 8 9 10 11 12 13 14 15 16 17 18 19 20 21 22 23 24 25 26 27 28 29 30 31 32 33 34 35 36 37 38 39 40 41 42 43 44 45 46 47 48 49 50

000
ASUS43 KFSD 271510
RWRSD

WEATHER ROUNDUP FOR SOUTH DAKOTA
NATIONAL WEATHER SERVICE SIOUX FALLS SD
1000 AM CDT SAT AUG 27 2016

NOTE: "FAIR" INDICATES FEW OR NO CLOUDS BELOW 12,000 FEET WITH NO
SIGNIFICANT WEATHER AND/OR OBSTRUCTIONS TO VISIBILITY.


SDZ001>005-009-010-012>017-271600-
NORTHWEST AND NORTH CENTRAL SOUTH DAKOTA

CITY           SKY/WX    TMP DP  RH WIND       PRES   REMARKS
BUFFALO          N/A     58  55  90 S7        29.91S
FAITH            N/A     63  57  81 S3        29.97F
MOBRIDGE       SUNNY     65  58  78 S3        29.94S
$$

SDZ012>016-024>037-041>051-057-063-072>074-271600-
SOUTHWEST AND SOUTH CENTRAL SOUTH DAKOTA

CITY           SKY/WX    TMP DP  RH WIND       PRES   REMARKS
RAPID CTY ARPT SUNNY     65  53  65 S13       29.99F
PIERRE         SUNNY     67  55  65 W7        29.95F
CUSTER         SUNNY     58  48  69 SW5       30.09F
ELLSWORTH AFB  SUNNY     64  55  72 S8        29.98S
PHILIP         SUNNY     64  53  67 CALM      29.98F
PINE RIDGE     CLOUDY    58  58 100 S9        30.04F
WINNER         FAIR      67  58  72 SW7       30.00F
$$

SDZ004>011-016>023-039-040-271600-
NORTHEAST SOUTH DAKOTA

CITY           SKY/WX    TMP DP  RH WIND       PRES   REMARKS
ABERDEEN       CLOUDY    63  60  90 S14       29.98S
WATERTOWN      CLOUDY    63  58  83 S10       30.02S
BROOKINGS      CLOUDY    62  58  86 SE9       30.02F
SISSETON         N/A     67  61  81 S9        29.99R
$$

SDZ017-020-022-023-036>040-048>070-271600-
SOUTHEAST SOUTH DAKOTA

CITY           SKY/WX    TMP DP  RH WIND       PRES   REMARKS
SIOUX FALLS    CLOUDY    65  63  93 CALM      30.02S
HURON          PTSUNNY   65  61  87 S14       30.00S
CHAMBERLAIN    MOSUNNY   67  61  79 S6        30.00S
MITCHELL       CLOUDY    66  61  84 S7        30.02S
YANKTON        PTSUNNY   66  61  82 W3        30.01S
$$

ABBREVIATIONS USED IN REMARKS
   TC - TEMPERATURE IN CELSIUS
  WCI - WIND CHILL INDEX
   HX - HEAT INDEX
  VSB - VISIBILITY





USA.gov is the U.S. government's official web portal to all federal, state and local government web resources and services.